This is the latest recevied weather packets stored in our database for station/object WB4YDL. If no packets are shown the sender has not sent any weather packets the latest 10 day(s).
| Time | Temp. | Humidity | Pressure | Rain* | Wind** | Luminosity | Snow |
|---|---|---|---|---|---|---|---|
| 1778024393 | 17.78° C | 99% | 1001.2 hPa | 0 mm | - | 21 W/m² | - |
| 1778024091 | 17.78° C | 99% | 1001.3 hPa | 0 mm | - | 24 W/m² | - |
| 1778023788 | 17.78° C | 99% | 1001.3 hPa | 0 mm | - | 21 W/m² | - |
| 1778023486 | 17.78° C | 99% | 1001.5 hPa | 0 mm | - | 27 W/m² | - |
| 1778023183 | 17.78° C | 99% | 1001.5 hPa | 1.78 mm | - | 29 W/m² | - |
| 1778022880 | 17.78° C | 99% | 1002 hPa | 1.78 mm | - | 21 W/m² | - |
| 1778022578 | 17.78° C | 99% | 1001.6 hPa | 0 mm | - | 25 W/m² | - |
| 1778022276 | 17.78° C | 99% | 1001.8 hPa | 0 mm | - | 30 W/m² | - |
| 1778021972 | 17.78° C | 99% | 1001.8 hPa | 0 mm | - | 37 W/m² | - |
| 1778021669 | 17.78° C | 99% | 1001.7 hPa | 1.27 mm | - | 33 W/m² | - |
| 1778021365 | 17.78° C | 99% | 1001.8 hPa | 1.27 mm | - | 27 W/m² | - |
| 1778021062 | 17.22° C | 99% | 1001.9 hPa | 0 mm | - | 30 W/m² | - |
| 1778020759 | 17.22° C | 99% | 1001.6 hPa | 0 mm | - | 28 W/m² | - |
| 1778020456 | 17.22° C | 99% | 1001.9 hPa | 0 mm | - | 56 W/m² | - |
| 1778020152 | 17.22° C | 99% | 1001.7 hPa | 0 mm | - | 59 W/m² | - |
| 1778019848 | 17.22° C | 99% | 1002 hPa | 1.78 mm | - | 52 W/m² | - |
| 1778019545 | 17.22° C | 99% | 1001.9 hPa | 3.05 mm | - | 50 W/m² | - |
| 1778019242 | 17.22° C | 99% | 1002 hPa | 1.27 mm | - | 52 W/m² | - |
| 1778018939 | 17.22° C | 99% | 1002 hPa | 1.78 mm | - | 58 W/m² | - |
| 1778018636 | 17.22° C | 99% | 1002.1 hPa | 1.78 mm | - | 68 W/m² | - |
| 1778018334 | 17.22° C | 99% | 1002.2 hPa | 1.27 mm | - | 52 W/m² | - |
| 1778018032 | 17.22° C | 99% | 1002.1 hPa | 1.27 mm | - | 51 W/m² | - |
| 1778017729 | 17.22° C | 99% | 1002.3 hPa | 1.78 mm | - | 46 W/m² | - |
| 1778017426 | 17.22° C | 99% | 1002.1 hPa | 3.56 mm | - | 42 W/m² | - |
| 1778017124 | 17.22° C | 99% | 1002.1 hPa | 1.78 mm | - | 43 W/m² | - |
* Rain latest hour (hover to see other rain measurements)
** Current wind speed in m/s (hover to see current wind gust speed)